Tracking 28335 objects as of 4-Dec-2023
HD Live streaming from Space Station
objects crossing your sky now

STARLINK-5580

Track STARLINK-5580 now!
10-day predictions
STARLINK-5580 is classified as:


NORAD ID: 55748
Int'l Code: 2023-028H
Perigee: 577.6 km
Apogee: 580.8 km
Inclination: 70.0 °
Period: 96.1 minutes
Semi major axis: 6950 km
RCS: Unknown
Launch date: March 3, 2023
Source: United States (US)
Launch site: AIR FORCE WESTERN TEST RANGE (AFWTR)
Your satellite tracking list
Your tracking list is empty




NASA's NSSDC Master Catalog

Two Line Element Set (TLE):
1 55748U 23028H   23337.83065506 -.00000295  00000-0 -16952-4 0  9990
2 55748  69.9987 169.3038 0002323 253.2495 106.8409 14.98330198 42188
Source of the keplerian elements: AFSPC